TimeHST,TemperatureF,Dew PointF,Humidity,Sea Level PressureIn,VisibilityMPH,Wind Direction,Wind SpeedMPH,Gust SpeedMPH,PrecipitationIn,Events,Conditions,WindDirDegrees,DateUTC
12:57 AM,76.1,68.0,76,29.99,7.0,ESE,8.1,-,N/A,,Overcast,110,2013-10-06 10:57:00
1:57 AM,76.6,66.9,72,29.97,7.0,Variable,5.8,-,N/A,,Overcast,0,2013-10-06 11:57:00
2:57 AM,76.1,66.9,73,29.96,7.0,East,4.6,-,N/A,,Mostly Cloudy,90,2013-10-06 12:57:00
3:57 AM,77.0,66.9,71,29.96,7.0,East,6.9,-,N/A,,Scattered Clouds,80,2013-10-06 13:57:00
4:57 AM,77.0,66.0,69,29.96,7.0,Variable,4.6,-,N/A,,Scattered Clouds,0,2013-10-06 14:57:00
5:57 AM,76.1,66.0,71,29.96,7.0,East,4.6,-,0.00,,Mostly Cloudy,100,2013-10-06 15:57:00
6:57 AM,76.1,66.9,73,29.98,7.0,East,6.9,-,N/A,,Mostly Cloudy,80,2013-10-06 16:57:00
7:57 AM,77.7,66.9,69,29.99,7.0,East,4.6,-,0.00,,Scattered Clouds,90,2013-10-06 17:57:00
8:57 AM,77.7,68.0,72,30.01,7.0,ENE,6.9,-,N/A,,Mostly Cloudy,70,2013-10-06 18:57:00
9:04 AM,78.8,69.8,74,30.02,6.2,ENE,8.1,-,N/A,,Mostly Cloudy,70,2013-10-06 19:04:00
9:33 AM,78.8,69.8,74,30.03,6.2,East,6.9,17.3,0.00,,Scattered Clouds,80,2013-10-06 19:33:00
9:57 AM,80.6,69.1,68,30.01,7.0,East,8.1,-,0.00,,Mostly Cloudy,80,2013-10-06 19:57:00
10:57 AM,80.6,70.0,70,30.01,10.0,East,4.6,-,N/A,,Mostly Cloudy,80,2013-10-06 20:57:00
11:57 AM,80.6,70.0,70,29.99,10.0,ENE,10.4,18.4,N/A,,Scattered Clouds,70,2013-10-06 21:57:00
12:26 PM,80.6,68.0,65,29.99,6.2,ESE,11.5,17.3,N/A,,Mostly Cloudy,110,2013-10-06 22:26:00
12:36 PM,80.6,68.0,65,29.99,6.2,East,6.9,18.4,0.00,Rain,Light Rain,100,2013-10-06 22:36:00
12:57 PM,80.6,68.0,65,29.97,10.0,Variable,5.8,-,0.00,,Overcast,0,2013-10-06 22:57:00
1:27 PM,82.4,69.8,66,29.97,6.2,ENE,9.2,-,N/A,,Overcast,70,2013-10-06 23:27:00
1:57 PM,82.4,69.1,64,29.95,7.0,ENE,9.2,17.3,N/A,,Overcast,60,2013-10-06 23:57:00
2:08 PM,82.4,68.0,62,29.96,6.2,ENE,9.2,-,N/A,,Overcast,60,2013-10-07 00:08:00
2:57 PM,80.6,68.0,65,29.94,7.0,ENE,6.9,-,N/A,,Mostly Cloudy,60,2013-10-07 00:57:00
3:57 PM,80.6,68.0,65,29.94,7.0,NE,9.2,-,N/A,,Mostly Cloudy,50,2013-10-07 01:57:00
4:57 PM,79.5,68.0,68,29.94,7.0,ENE,8.1,-,N/A,,Mostly Cloudy,70,2013-10-07 02:57:00
5:57 PM,78.8,68.0,69,29.96,7.0,ENE,6.9,-,N/A,,Overcast,60,2013-10-07 03:57:00
6:57 PM,78.8,68.0,69,29.97,7.0,East,9.2,-,0.00,,Scattered Clouds,90,2013-10-07 04:57:00
7:57 PM,78.8,68.0,69,29.99,7.0,ENE,6.9,-,N/A,,Overcast,70,2013-10-07 05:57:00
8:57 PM,78.8,68.0,69,30.00,7.0,East,8.1,-,N/A,,Scattered Clouds,80,2013-10-07 06:57:00
9:57 PM,78.8,69.1,72,30.01,7.0,ENE,10.4,18.4,N/A,,Partly Cloudy,70,2013-10-07 07:57:00
10:52 PM,77.0,69.8,78,30.02,6.2,East,11.5,17.3,N/A,,Mostly Cloudy,80,2013-10-07 08:52:00
10:57 PM,77.0,69.1,76,30.01,7.0,East,9.2,17.3,N/A,,Scattered Clouds,80,2013-10-07 08:57:00
11:57 PM,77.0,69.1,76,30.00,7.0,East,4.6,-,N/A,,Scattered Clouds,90,2013-10-07 09:57:00